Location: Krakow
(50.0830°N, 19.9170°E)
Time: 09:39:07
(UTC+01:00)

Tiros 1 - All Passes

Search period start: 11 December 2023 00:00
Search period end: 21 December 2023 00:00
Orbit: 625 x 659 km, 48.4° (Epoch: 10 December)

Date Brightness Start Highest point End Pass type
(mag) Time Alt. Az. Time Alt. Az. Time Alt. Az.
11 Dec - 01:18:01 10° SSW 01:21:34 21° SE 01:25:07 10° E night (unlit)
11 Dec - 02:58:22 10° WSW 03:03:01 54° SSE 03:07:42 10° E visible
11 Dec - 04:40:11 10° W 04:44:58 74° S 04:49:46 10° E visible
11 Dec - 06:22:16 10° W 06:26:52 47° SSW 06:31:27 10° SE visible
11 Dec - 08:05:10 10° W 08:08:13 17° SW 08:11:14 10° S daylight
12 Dec - 01:41:27 10° SW 01:45:44 34° SSE 01:50:03 10° E night (unlit)
12 Dec - 03:22:43 10° WSW 03:27:28 68° S 03:32:15 10° E visible
12 Dec - 05:04:43 10° W 05:09:28 66° S 05:14:13 10° ESE visible
12 Dec - 06:46:57 10° W 06:51:10 31° SSW 06:55:21 10° SSE visible
13 Dec - 00:25:19 10° S 00:28:38 19° SE 00:31:59 10° E night (unlit)
13 Dec - 02:05:27 10° SW 02:10:03 51° SSE 02:14:42 10° E visible
13 Dec - 03:47:12 10° W 03:51:58 74° S 03:56:46 10° E visible
13 Dec - 05:29:16 10° W 05:33:54 50° SSW 05:38:31 10° SE visible
13 Dec - 07:12:00 10° W 07:15:18 19° SW 07:18:35 10° S daylight
14 Dec - 00:48:36 10° SSW 00:52:47 32° SSE 00:57:00 10° E night (unlit)
14 Dec - 02:29:45 10° WSW 02:34:28 66° S 02:39:14 10° E visible
14 Dec - 04:11:43 10° W 04:16:29 68° S 04:21:14 10° ESE visible
14 Dec - 05:53:54 10° W 05:58:13 34° SSW 06:02:30 10° SE visible
14 Dec - 23:32:39 10° S 23:35:43 17° SE 23:38:49 10° E night (unlit)
15 Dec - 01:12:31 10° SW 01:17:04 48° SSE 01:21:41 10° E night (unlit)
15 Dec - 02:54:13 10° W 02:58:59 74° S 03:03:46 10° E visible
15 Dec - 04:36:15 10° W 04:40:55 53° SSW 04:45:35 10° ESE visible
15 Dec - 06:18:51 10° W 06:22:22 20° SW 06:25:53 10° S visible
15 Dec - 23:55:46 10° SSW 23:59:49 29° SSE 00:03:57 10° E night (unlit)
16 Dec - 01:36:46 10° WSW 01:41:29 64° SSE 01:46:13 10° E night (unlit)
16 Dec - 03:18:43 10° W 03:23:28 70° S 03:28:15 10° ESE visible
16 Dec - 05:00:52 10° W 05:05:15 36° SSW 05:09:37 10° SE visible
16 Dec - 06:45:09 10° WSW 06:46:23 11° SW 06:47:35 10° SSW visible
16 Dec - 22:40:03 10° S 22:42:48 16° SE 22:45:35 10° ESE night (unlit)
17 Dec - 00:19:35 10° SW 00:24:06 45° SSE 00:28:39 10° E night (unlit)
17 Dec - 02:01:13 10° W 02:05:58 73° S 02:10:45 10° E night (unlit)
17 Dec - 03:43:15 10° W 03:47:56 56° SSW 03:52:37 10° ESE visible
17 Dec - 05:25:44 10° W 05:29:26 22° SW 05:33:08 10° SSE visible
17 Dec - 23:02:56 10° SSW 23:06:53 27° SSE 23:10:52 10° E night (unlit)
18 Dec - 00:43:49 10° WSW 00:48:29 62° SSE 00:53:13 10° E night (unlit)
18 Dec - 02:25:43 10° W 02:30:28 71° S 02:35:15 10° ESE visible
18 Dec - 04:07:50 10° W 04:12:17 39° SSW 04:16:44 10° SE visible
18 Dec - 05:51:31 10° WSW 05:53:27 12° SW 05:55:24 10° SSW visible
18 Dec - 21:47:31 10° SSE 21:49:54 14° SE 21:52:17 10° ESE night (unlit)
18 Dec - 23:26:41 10° SW 23:31:07 42° SSE 23:35:37 10° E night (unlit)
19 Dec - 01:08:13 10° W 01:12:57 72° S 01:17:44 10° E night (unlit)
19 Dec - 02:50:14 10° W 02:54:56 59° SSW 02:59:38 10° ESE visible
19 Dec - 04:32:38 10° W 04:36:30 24° SW 04:40:21 10° SSE visible
19 Dec - 22:10:09 10° SSW 22:13:56 25° SE 22:17:46 10° E night (unlit)
19 Dec - 23:50:51 10° WSW 23:55:29 59° SSE 00:00:11 10° E night (unlit)
20 Dec - 01:32:43 10° W 01:37:28 72° S 01:42:14 10° ESE night (unlit)
20 Dec - 03:14:48 10° W 03:19:18 42° SSW 03:23:47 10° SE visible
20 Dec - 04:58:08 10° WSW 05:00:32 14° SW 05:02:57 10° SSW visible
20 Dec - 20:55:06 10° SSE 20:56:59 12° SE 20:58:52 10° ESE night (unlit)
20 Dec - 22:33:47 10° SW 22:38:08 39° SSE 22:42:33 10° E night (unlit)
